Terminal Aerodrome Forecast
Issued by NWS Sterling, VA

Current Version | Previous Version | Graphics & Text | Print | Product List | Glossary On
Versions: 1 2 3 4 5 6 7 8 9 10 11 12 13 14 15 16 17 18 19 20 21 22
000
FTUS41 KLWX 161500 AAA
TAFIAD
TAF AMD
KIAD 161507Z 1615/1718 36014G22KT P6SM FEW250
     FM162000 03010KT P6SM SKC
     FM162300 05006KT P6SM SKC
     FM171400 09010KT P6SM SCT250=

USA.gov is the U.S. government's official web portal to all federal, state and local government web resources and services.